Regional Weather Roundup
Issued by NWS Kansas City/Pleasant Hill, MO

Home | Current Version | Previous Version | Text Only | Print | Product List | Glossary On
Versions: 1 2 3 4 5 6 7 8 9 10 11 12 13 14 15 16 17 18 19 20 21 22 23 24 25 26 27 28 29 30 31 32 33 34 35 36 37 38 39 40 41 42 43 44 45 46 47 48 49 50
000
ASUS43 KEAX 251710
RWREAX

WEATHER ROUNDUP FOR EASTERN KANSAS AND NORTHWEST MISSOURI
NATIONAL WEATHER SERVICE KANSAS CITY/PLEASANT HILL MO
1200 PM CDT WED MAY 25 2016

KSZ040-057-103>105-MOZ028-029-037-043-251800-
...KANSAS CITY METROPOLITAN AREA...

CITY           SKY/WX    TMP DP  RH WIND       PRES   REMARKS
K.C. INTL      CLOUDY    73  61  65 NE9       29.96R
K.C. DOWNTOWN  CLOUDY    76  63  64 NE8       29.93R
LEES SUMMIT    PTSUNNY   74  63  68 CALM      29.95R
OLATHE - IXD   CLOUDY    74  61  63 CALM      29.94R
OLATHE - OJC   PTSUNNY   74  59  59 S5        29.94R
LAWRENCE       CLOUDY    75  61  61 E5        29.92R

$$

MOZ001>008-011>017-020>025-030>033-038>040-044>046-053-054-251800-
...NORTHERN AND CENTRAL MISSOURI...

CITY           SKY/WX    TMP DP  RH WIND       PRES   REMARKS
ST. JOSEPH     CLOUDY    73  62  68 NE6       29.93F
MOSBY          CLOUDY    72  61  68 N5        29.95R
WARRENSBURG    PTSUNNY   73  63  68 NE3       29.94R
WHITEMAN AFB   PTSUNNY   74  64  69 NE7       29.93R
CLINTON        CLOUDY    73  63  68 N7        29.95R
SEDALIA        CLOUDY    77  64  64 MISG      29.95R
WARSAW         NOT AVBL
CHILLICOTHE      N/A     77  63  61 SE5       29.94S
KIRKSVILLE     CLOUDY    73  64  73 SE6       29.95F

$$

MOZ041-047>049-056>058-063>065-088>090-097-251800-
...EASTERN AND SOUTHERN MISSOURI...

CITY           SKY/WX    TMP DP  RH WIND       PRES   REMARKS
ST. LOUIS INTL CLOUDY    77  65  66 S16G23    30.01R
SPIRIT OF STL  PTSUNNY   76  68  76 S12       29.99R
COLUMBIA       CLOUDY    75  66  73 SE10      29.95S
JEFFERSON CITY PTSUNNY   75  66  73 SE15      29.93F
ROLLA          LGT RAIN  75  64  68 S18G29    29.96F
SPRINGFIELD    CLOUDY    68  59  73 E7        29.94R
BRANSON        LGT RAIN  63  61  94 E17G26    29.97F
JOPLIN         SUNNY     77  62  59 S14       29.92R
WEST PLAINS    CLOUDY    72  63  73 W8        30.09S

$$

IAZ060-094-KSZ022-034>040-054-083-096-NEZ052-066-093-251800-
...KANSAS...SOUTHEAST NEBRASKA AND IOWA...

CITY           SKY/WX    TMP DP  RH WIND       PRES   REMARKS
TOPEKA         CLOUDY    73  63  70 NE7       29.91R
MANHATTAN      CLOUDY    73  65  75 VRB3      29.87S
EMPORIA        MOSUNNY   74  65  73 S18       29.89F
CHANUTE        CLOUDY    77  63  61 S12       29.92R
WICHITA        CLOUDY    78  70  76 S24G33    29.84S
OMAHA          CLOUDY    71  61  70 S13       29.83F
LINCOLN        SUNNY     73  61  65 S10G16    29.85F
FALLS CITY     CLOUDY    71  64  78 E10       29.87F
LAMONI         CLOUDY    71  65  81 S12       29.94R
DES MOINES     CLOUDY    75  66  73 S12       29.87S

$$




USA.gov is the U.S. government's official web portal to all federal, state and local government web resources and services.